• Join FlightAware (Why Join?)
  • Login
  • US Flag 
10:01AM EST


 

Airport Tracker/Info


-or-


 

Live Flight TrackerFlight Track Log ✈ UCA597 ✈ 09-Nov-2013 ✈ KIAD - KBGM

Flight Track Log - Related Links

Times and Time Zones

All times are in EST time to prevent confusion due to time zone crossing. See the UCA597 flight status page for this flight to view local times or setup timezone preferences in your user account.

Time Position Orientation Groundspeed Altitude Reporting Facility
EST Latitude Longitude Course Direction KTS MPH feet Rate Location/Type
06:05PM 38.9500 -77.5167 293° West 141 162 2,100  Level Potomac TRACON
06:06PM 38.9667 -77.5667 293° West 162 186 3,700 1,650 Climbing Potomac TRACON
06:07PM 39.0167 -77.6000 333° Northwest 177 204 5,400 1,750 Climbing Potomac TRACON
06:08PM 39.0500 -77.6000 360° North 181 208 7,200 1,600 Climbing Potomac TRACON
06:10PM 39.1475 -77.5533 20° North 188 216 10,200 1,492 Climbing Washington Center
06:11PM 39.1956 -77.5494 North 176 203 11,700 1,525 Climbing Washington Center
06:12PM 39.2458 -77.5372 11° North 176 203 13,300 1,160 Climbing Washington Center
06:13PM 39.3003 -77.5253 10° North 181 208 14,000 353 Climbing Washington Center
06:14PM 39.3692 -77.5164 North 209 241 14,000 49 Level Washington Center
06:15PM 39.4400 -77.5047 North 241 277 14,100 1,068 Climbing Washington Center
06:16PM 39.5028 -77.4878 12° North 246 283 16,100 1,000 Climbing Washington Center
06:17PM 39.5678 -77.4733 10° North 234 269 16,100 242 Level Washington Center
06:18PM 39.6803 -77.4503 North 261 300 16,700 735 Climbing New York Center
06:19PM 39.7408 -77.4506 360° North 240 276 17,900 1,119 Climbing New York Center
06:20PM 39.7908 -77.4528 358° North 210 242 18,900 564 Climbing New York Center
06:21PM 39.8597 -77.4511 North 207 238 19,000 50 Climbing New York Center
06:22PM 39.9242 -77.4194 21° North 241 277 19,000  Level New York Center
06:23PM 40.0036 -77.3756 23° Northeast 268 308 19,000  Level New York Center
06:24PM 40.0661 -77.3406 23° Northeast 273 314 19,000  Level New York Center
06:25PM 40.1456 -77.2967 23° Northeast 273 314 19,000  Level New York Center
06:26PM 40.2081 -77.2617 23° Northeast 273 314 19,000  Level New York Center
06:27PM 40.2856 -77.2172 24° Northeast 273 314 19,000  Level New York Center
06:28PM 40.3500 -77.1822 22° Northeast 273 314 19,000  Level New York Center
06:29PM 40.4294 -77.1378 23° Northeast 278 320 19,000  Level New York Center
06:30PM 40.4961 -77.1003 23° Northeast 278 320 19,000 -99 Level New York Center
06:31PM 40.5778 -77.0558 22° Northeast 278 320 18,800 -454 Descending New York Center
06:32PM 40.6467 -77.0156 24° Northeast 278 320 18,100 -712 Descending New York Center
06:33PM 40.7367 -76.9664 22° Northeast 291 335 17,400 -744 Descending New York Center
06:34PM 40.8056 -76.9258 24° Northeast 301 346 16,600 -787 Descending New York Center
06:35PM 40.8914 -76.8789 22° Northeast 301 346 15,800 -787 Descending New York Center
06:36PM 40.9686 -76.8336 24° Northeast 301 346 15,000 -356 Descending New York Center
06:37PM 41.0439 -76.7906 23° Northeast 301 346 15,100 51 Climbing New York Center
06:38PM 41.1189 -76.7478 23° Northeast 301 346 15,100  Level New York Center
06:39PM 41.1939 -76.7047 23° Northeast 296 341 15,100  Level New York Center
06:40PM 41.2606 -76.6664 23° Northeast 291 335 15,100  Level New York Center
06:41PM 41.3378 -76.6178 25° Northeast 285 328 15,100  Level New York Center
06:42PM 41.4128 -76.5772 22° Northeast 285 328 15,100  Level New York Center
06:43PM 41.4836 -76.5336 25° Northeast 285 328 15,100  Level New York Center
06:44PM 41.5500 -76.4950 24° Northeast 280 322 15,100 -248 Level New York Center
06:45PM 41.6228 -76.4539 23° Northeast 280 322 14,600 -976 Descending New York Center
06:46PM 41.7064 -76.4028 25° Northeast 285 328 13,100 -1,450 Descending New York Center
06:47PM 41.7836 -76.3592 23° Northeast 291 335 11,700 -1,400 Descending New York Center
06:48PM 41.8478 -76.3200 24° Northeast 272 313 10,300 -1,462 Descending New York Center
06:49PM 41.9056 -76.2858 24° Northeast 247 284 8,800 -1,627 Descending New York Center
06:50PM 41.9764 -76.2444 23° Northeast 247 284 7,100 -1,500 Descending New York Center
06:51PM 42.0406 -76.2050 25° Northeast 247 284 5,800 -1,100 Descending New York Center
06:52PM 42.0925 -76.1589 33° Northeast 247 284 4,900 -443 Descending New York Center
06:53PM 42.1489 -76.1133 31° Northeast 247 284 4,900 -350 Level New York Center
06:54PM 42.2019 -76.0867 20° North 220 253 4,200 -807 Descending New York Center
06:55PM 42.2431 -76.0536 31° Northeast 189 217 3,300 -992 Descending New York Center
06:56PM 42.2411 -76.0058 93° East 144 166 2,200 -655 Descending New York Center
06:57PM 42.2472 -75.9589 80° East 111 128 2,000 3,458 Descending New York Center
06:58PM 42.2531 -75.9172 79° East 111 128 9,000 3,443 Climbing New York Center
06:59PM 42.2611 -75.8758 75° East 111 128 9,000  Level New York Center
07:00PM 42.2672 -75.8342 79° East 111 128 9,000  Level New York Center
07:01PM 42.2694 -75.8261 70° East 111 128 9,000  Level New York Center
07:03PM 42.2305 -75.9050 236° Southwest  Level FlightAware Approximate
07:10PM 42.2000 -75.9667 North  Level FlightAware Approximate
07:11PM 42.2084 -75.9796 North  Level Estimated
07:12PM 42.2084 -75.9796 North  Level Estimated
07:13PM 42.2084 -75.9796 North  Level Estimated
07:14PM 42.2084 -75.9796 North  Level Estimated
07:15PM 42.2084 -75.9796 North  Level Estimated
07:16PM 42.2084 -75.9796 North  Level Estimated
07:17PM 42.2084 -75.9796 North  Level Estimated
07:18PM 42.2084 -75.9796 North  Level Estimated